Simultaneous Nadir Overpasses (SNOs) Predictions

Prediction of SNOs between NOAA-19 and TERRA Satellite Orbit:

Table of predicted SNOs for the next 14.0 days since TLE Epoch: 11/30/2024
Index Date (NOAA-19) Time (NOAA-19) Lat,Lon (NOAA-19) SZA (NOAA-19 ) Date (TERRA) Time (TERRA) Lat,Lon (TERRA) SZA (TERRA ) Distance(km) Time Diff (sec)
1 11/30/2024 07:54:37 -46.44,-146.05 108.44 11/30/2024 07:54:37 -46.44,-146.06 108.44 0.56 0
2 12/02/2024 10:53:22 -45.78, 169.09 108.63 12/02/2024 10:53:35 -45.79, 168.97 108.61 9.15 13
3 12/02/2024 11:36:07 73.09, 0.39 95.09 12/02/2024 11:34:54 73.45, -1.48 95.48 71.53 73
4 12/04/2024 13:51:42 -46.53, 124.81 107.70 12/04/2024 13:52:08 -46.57, 124.53 107.62 21.44 26
5 12/04/2024 14:41:54 49.23, -66.78 74.53 12/04/2024 14:40:41 49.23, -66.76 74.60 1.30 73
6 12/06/2024 16:50:03 -47.20, 80.50 106.85 12/06/2024 16:50:41 -47.29, 80.08 106.70 33.17 38
7 12/06/2024 17:41:18 46.26,-112.64 72.39 12/06/2024 17:40:16 46.26,-112.63 72.46 0.50 62
8 12/08/2024 19:48:24 -47.86, 36.19 106.05 12/08/2024 19:49:14 -47.97, 35.62 105.86 44.37 50
9 12/08/2024 20:40:11 45.05,-157.70 71.67 12/08/2024 20:39:20 45.08,-157.77 71.78 6.51 51
10 12/10/2024 22:46:45 -48.50, -8.12 105.29 12/10/2024 22:47:46 -48.65, -8.83 105.04 55.19 61
11 12/10/2024 23:38:43 45.03, 157.70 71.89 12/10/2024 23:38:04 45.05, 157.50 72.01 16.41 39
12 12/13/2024 01:45:06 -49.12, -52.43 104.58 12/13/2024 01:46:18 -49.28, -53.29 104.29 65.43 72



Historial Predications of SNOs between NOAA-19 and TERRA
